Find OneWeb SL0474

NORAD ID: 51654 Int'l Des: 2022-012 Owner: ONEWEBN Country: UK Constellation: oneweb operational
LEOCIRCULARPOLARONEWEB_TYPE

リアルタイム位置

3D地球を読み込み中...

OneWeb SL0474について

説明を読み込み中...

次回通過

Passes for default location (London). Set your location on the main map for personalized predictions.

高度履歴

Loading altitude history...

軌道要素

1 51654U 22012AJ 26107.23574317 -.00000402 00000-0 -11867-2 0 9999
2 51654 87.8844 48.3835 0002171 84.0579 276.0796 13.10369404201312
Epoch: Apr 17, 2026 • Age: 8 hours

現在のステータス

高度 1226.0 km
速度 7.25 km/s
衛星直下点 37.29°N, 175.3°E
打ち上げ日 Feb 10, 2022
運用期間 4.1 years
タイプ internet

技術仕様

分類 Payload
質量 148.00 kg
乾燥質量 140.00 kg
総質量 148.00 kg
長さ 1.30 m
直径 1.00 m
スパン 5.00 m
形状 Trapezoid+2 pan
製造者 ONEWUS
バスタイプ ARROW
フェーズステータス In Orbit
所有者/国 ONEWEBN/UK

Most Searched